Weather History for Kalamazoo, MI

Change the Weather History Date:

Saturday, December 8, 2012

  Actual Average Record
Temperature  
Mean Temperature 37 °F 31 °F  
Max Temperature 42 °F 37 °F 63 °F (1966)
Min Temperature 32 °F 25 °F 2 °F (1977)
Degree Days  
Heating Degree Days 28 34  
Month to date heating degree days 178 261  
Since 1 July heating degree days 1559 1588  
Cooling Degree Days 0 0  
Month to date cooling degree days 0 0  
Year to date cooling degree days 1051 675  
Moisture  
Dew Point 34 °F    
Average Humidity 86    
Maximum Humidity 96    
Minimum Humidity 75    
Precipitation  
Precipitation 0.10 in 0.07 in 0.93 in (1966)
Month to date precipitation 0.51 0.64  
Year to date precipitation 26.19 34.40  
Sea Level Pressure  
Sea Level Pressure 29.97 in    
Wind  
Wind Speed 6 mph (NNE)    
Max Wind Speed 13 mph    
Max Gust Speed 17 mph    
Visibility 7 miles    
Events Rain    
T = Trace of Precipitation, MM = Missing Value Source: NWS Daily Summary

Daily Weather History Graph

Daily Weather History Graph

Search for Another Location

Airport:

Trip Planner

Search our weather history database for the weather conditions in past years. The results will help you decide how hot, cold, wet, or windy it might be!

Date:

Astronomy

Dec. 08, 2012 Rise Set
Actual Time 7:58 AM EST 5:09 PM EST
Civil Twilight 7:27 AM EST 5:41 PM EST
Nautical Twilight 6:51 AM EST 6:16 PM EST
Astronomical Twilight 6:17 AM EST 6:50 PM EST
Moon 2:17 AM EST (12/8) 1:43 PM EST (12/8)
Length of Visible Light 10h 14m
Length of Day
9h 11m
Waning Crescent, 28% of the Moon is Illuminated
Dec 8
Waning Crescent
Dec 13
New
Dec 20
First Quarter
Dec 28
Full
Jan 4
Last Quarter

Hourly Weather History & Observations

Time (EST) Temp. Windchill Dew Point Humidity Pressure Visibility Wind Dir Wind Speed Gust Speed Precip Events Conditions
12:53 AM 42.1 °F - 41.0 °F 96% 29.87 in 2.5 mi Calm Calm - N/A   Overcast
1:49 AM 42.8 °F 41.1 °F 41.0 °F 93% 29.84 in 2.0 mi NNE 3.5 mph - N/A   Overcast
1:53 AM 42.1 °F 40.2 °F 41.0 °F 96% 29.86 in 2.0 mi NNE 3.5 mph - N/A   Overcast
2:19 AM 42.8 °F - 41.0 °F 93% 29.84 in 1.8 mi Calm Calm - 0.01 in Rain Light Rain
2:53 AM 42.1 °F - 41.0 °F 96% 29.85 in 1.8 mi Calm Calm - 0.01 in Rain Light Rain
3:53 AM 42.1 °F - 41.0 °F 96% 29.86 in 1.0 mi Calm Calm - 0.01 in Rain Light Rain
4:00 AM 42.8 °F - 41.0 °F 93% 29.84 in 0.8 mi Calm Calm - 0.00 in Rain Light Rain
4:09 AM 42.8 °F - 41.0 °F 93% 29.83 in 1.0 mi Calm Calm - 0.00 in Rain Light Rain
4:53 AM 42.1 °F 39.2 °F 41.0 °F 96% 29.84 in 2.0 mi North 4.6 mph - 0.01 in Rain Light Rain
5:53 AM 42.8 °F - 41.0 °F 93% 29.82 in 2.5 mi Calm Calm - N/A Rain Light Rain
6:53 AM 42.1 °F 37.1 °F 41.0 °F 96% 29.87 in 3.0 mi North 8.1 mph - 0.05 in Rain Light Rain
7:25 AM 37.4 °F 29.8 °F 35.6 °F 93% 29.86 in 8.0 mi North 11.5 mph - 0.00 in   Overcast
7:32 AM 37.4 °F 30.3 °F 35.6 °F 93% 29.86 in 7.0 mi North 10.4 mph - 0.00 in   Overcast
7:53 AM 37.0 °F 30.4 °F 35.1 °F 93% 29.90 in 5.0 mi North 9.2 mph - 0.00 in   Overcast
8:53 AM 35.1 °F 29.3 °F 34.0 °F 96% 29.92 in 10.0 mi NNE 6.9 mph - 0.00 in   Overcast
9:53 AM 35.1 °F 28.6 °F 33.1 °F 92% 29.95 in 4.0 mi NE 8.1 mph - 0.00 in Rain Light Rain
10:53 AM 35.1 °F 28.6 °F 33.1 °F 92% 29.97 in 10.0 mi North 8.1 mph - 0.00 in   Overcast
11:53 AM 36.0 °F 30.3 °F 33.1 °F 89% 29.98 in 10.0 mi NNE 6.9 mph - N/A   Overcast
12:53 PM 35.1 °F 28.6 °F 32.0 °F 89% 29.99 in 10.0 mi NE 8.1 mph - N/A   Overcast
1:53 PM 36.0 °F 29.6 °F 32.0 °F 86% 30.00 in 10.0 mi NNE 8.1 mph - N/A   Overcast
2:53 PM 37.0 °F 31.6 °F 32.0 °F 82% 30.02 in 10.0 mi NNE 6.9 mph - 0.00 in   Mostly Cloudy
3:53 PM 37.0 °F 32.4 °F 30.9 °F 79% 30.04 in 10.0 mi NE 5.8 mph - N/A   Mostly Cloudy
4:53 PM 35.6 °F 29.9 °F 30.2 °F 81% 30.04 in 10.0 mi North 6.9 mph - N/A   Scattered Clouds
5:20 PM 35.6 °F 31.7 °F 30.2 °F 81% 30.05 in 10.0 mi NE 4.6 mph - N/A   Overcast
5:53 PM 36.0 °F 31.1 °F 30.0 °F 79% 30.10 in 10.0 mi NNE 5.8 mph - N/A   Overcast
6:53 PM 35.1 °F 29.3 °F 28.9 °F 78% 30.12 in 10.0 mi NNE 6.9 mph - N/A   Overcast
7:53 PM 34.0 °F 28.0 °F 27.0 °F 75% 30.14 in 10.0 mi NE 6.9 mph - N/A   Overcast
8:53 PM 34.0 °F 27.2 °F 27.0 °F 75% 30.14 in 10.0 mi NE 8.1 mph - N/A   Overcast
9:19 PM 33.8 °F 29.6 °F 26.6 °F 75% 30.12 in 10.0 mi East 4.6 mph - N/A   Scattered Clouds
9:53 PM 33.1 °F 26.9 °F 27.0 °F 78% 30.16 in 10.0 mi ENE 6.9 mph - N/A   Clear
10:53 PM 33.1 °F 28.7 °F 27.0 °F 78% 30.17 in 10.0 mi ENE 4.6 mph - N/A   Clear
11:53 PM 33.1 °F 26.9 °F 27.0 °F 78% 30.17 in 10.0 mi East 6.9 mph - N/A   Scattered Clouds